Wind_Speed
39 39 39 39 38 38 37 35 34 33 31 29 27 27 26 26 25 25 24 24 23 22 21 20 19 18 18 18 18 18 18 17 17 16 17 17 17 17 18 19 20 20
38 39 39 39 38 38 37 36 34 33 31 29 27 27 27 27 26 26 25 24 23 22 21 20 19 18 18 19 19 19 19 19 18 17 18 18 18 18 18 19 20 21
39 39 39 39 39 38 37 35 34 33 31 29 28 28 28 28 27 26 25 24 23 22 21 20 19 19 19 19 20 20 20 20 19 19 19 19 19 19 19 20 21 21
38 39 39 38 38 37 36 36 35 34 32 31 30 29 29 29 28 27 26 25 23 22 21 20 20 20 20 20 20 21 21 21 20 20 20 20 20 20 21 21 21 22
37 38 38 38 38 37 37 36 35 34 32 32 31 31 30 29 28 27 26 24 23 22 21 20 20 20 20 21 21 22 22 22 21 21 21 22 22 22 22 22 22 22
36 37 37 37 37 37 37 37 35 34 33 33 32 31 30 29 28 27 25 24 23 22 21 21 21 21 21 22 22 23 23 22 22 23 23 23 23 23 23 23 23 23
35 36 35 36 36 37 38 37 36 35 34 33 32 31 31 29 28 27 26 25 23 22 22 22 22 22 22 23 23 24 24 23 23 24 24 25 25 24 24 24 24 24
34 34 34 35 35 37 38 38 37 36 34 33 33 32 31 30 29 28 26 25 24 23 22 23 23 23 23 23 24 24 24 24 24 25 25 26 25 25 25 25 26 25
34 34 34 35 36 37 38 38 37 36 35 34 33 32 31 30 29 28 27 25 24 24 24 24 23 23 23 24 25 25 25 25 25 26 26 26 26 26 26 26 26 26
34 34 34 35 36 37 37 38 37 36 35 34 33 33 32 31 30 28 27 26 25 24 24 24 23 24 24 25 25 25 25 25 26 26 26 26 26 27 27 27 27 27
34 34 35 35 36 36 37 38 38 37 36 35 34 34 32 31 30 28 27 26 25 25 25 25 24 25 25 26 26 26 26 26 26 26 26 26 27 27 27 27 28 28
35 35 35 35 35 36 37 37 38 37 37 36 35 34 32 31 30 28 27 26 25 25 25 25 25 26 26 27 26 26 26 26 26 26 27 27 27 28 28 28 29 29
35 35 34 34 34 35 36 37 38 37 37 36 35 33 32 31 29 28 27 26 26 26 26 26 26 27 27 27 27 26 26 26 27 27 27 27 28 28 28 29 29 29
34 34 34 33 33 34 36 37 38 38 37 35 35 34 33 31 29 28 27 27 27 27 27 26 27 27 27 27 27 27 27 27 27 28 28 28 28 29 29 30 30 29
34 34 33 33 33 35 36 38 38 38 37 36 35 34 32 31 29 29 28 28 28 27 27 27 27 28 27 27 27 27 28 28 28 28 28 28 29 30 30 30 30 30
34 34 34 33 34 35 36 38 38 38 38 37 36 34 32 31 30 29 29 28 28 27 27 28 28 27 27 27 27 28 28 29 29 28 29 29 30 31 31 31 31 30
34 34 34 34 34 34 36 37 38 39 38 37 35 34 32 31 30 29 29 28 28 28 28 28 28 27 27 27 28 29 29 29 29 29 29 30 31 32 32 31 31 30
34 34 34 34 34 34 35 37 38 39 39 37 35 34 32 31 30 30 29 28 28 28 28 28 27 27 27 28 28 28 29 30 30 30 30 31 32 32 32 31 30 30
34 34 34 34 34 33 34 36 38 40 39 37 35 34 33 32 31 30 29 28 28 28 28 28 27 27 27 28 28 28 28 30 31 32 32 32 33 33 32 31 29 29
35 35 34 34 33 32 33 36 38 40 39 37 35 34 34 33 32 30 29 28 28 28 28 28 27 27 28 28 28 28 28 30 32 33 34 34 33 33 32 31 29 29
35 35 34 34 33 32 33 35 38 39 39 38 36 35 34 33 31 30 29 28 29 29 29 28 27 27 28 28 28 28 29 30 32 34 35 35 34 33 32 31 30 30
35 34 34 33 32 32 33 35 37 39 39 38 36 35 34 33 32 30 29 29 29 29 29 28 27 27 28 28 28 28 29 31 33 34 35 36 35 34 32 30 29 30
35 34 33 32 32 33 33 34 36 38 38 38 37 36 35 33 31 30 29 29 29 30 29 28 27 27 28 29 28 28 29 31 33 34 36 36 36 35 33 30 29 29
33 33 32 32 32 32 32 33 35 37 37 37 36 36 34 32 31 30 30 30 30 29 29 28 27 27 28 29 28 28 30 32 34 35 36 37 37 35 32 30 29 29
33 33 32 32 32 31 31 32 33 35 36 36 36 35 33 32 31 31 30 30 30 30 29 29 28 27 28 28 28 28 30 33 34 36 37 37 36 35 32 30 29 29
33 33 32 32 31 30 29 31 32 34 36 36 36 34 33 32 31 31 31 30 30 30 29 29 28 27 27 28 29 28 30 33 35 36 37 36 35 34 33 30 29 29
Wind_Direction
246 246 246 245 243 243 241 240 240 240 241 241 242 241 242 243 245 247 249 251 254 258 262 267 271 276 279 282 283 283 284 286 288 290 292 294 297 300 302 303 304 303
246 247 247 246 244 243 241 241 241 240 240 240 239 239 240 242 245 247 249 251 254 258 261 266 271 275 277 279 280 282 283 285 286 288 290 291 293 295 297 299 300 301
246 246 247 247 246 245 243 242 241 239 238 238 237 237 239 241 243 245 248 250 253 256 260 265 269 272 274 276 277 279 280 281 283 285 287 288 290 291 292 294 297 299
246 246 247 247 247 246 244 242 239 237 237 237 236 236 239 241 242 244 246 249 252 255 259 264 267 269 271 273 275 275 275 276 279 281 283 284 286 287 288 291 294 297
246 246 247 247 246 245 244 241 238 236 236 236 236 236 239 241 243 244 246 249 252 255 259 262 265 267 269 271 271 272 272 274 276 279 281 281 282 283 285 288 292 295
245 245 245 245 245 244 243 240 237 235 235 235 235 236 238 241 243 245 247 250 252 255 258 261 263 265 266 268 269 269 270 273 275 278 279 280 280 282 284 286 289 293
244 244 244 244 244 243 242 240 236 235 234 234 234 235 237 239 242 244 247 250 252 255 257 259 262 263 264 266 267 268 270 272 275 276 277 278 279 281 284 286 288 291
244 243 243 243 242 242 240 238 237 235 234 234 234 236 237 239 241 243 246 248 251 255 257 259 260 262 263 265 266 268 269 271 273 274 275 277 278 281 283 284 286 289
243 242 241 241 240 240 239 237 236 235 235 235 235 236 237 238 240 243 245 247 251 254 257 258 260 262 263 265 266 267 269 270 271 272 274 276 278 280 281 283 285 288
243 242 241 240 239 238 237 236 235 235 235 235 235 236 237 238 239 241 244 248 251 254 257 259 261 263 265 266 266 267 268 269 270 271 273 275 277 279 280 282 284 288
243 243 241 240 239 237 236 235 235 234 234 234 235 235 236 237 239 241 244 248 251 254 257 260 262 264 266 266 266 266 267 268 269 272 273 275 277 278 281 282 284 286
244 243 242 241 239 237 236 235 234 234 234 234 235 236 236 238 240 242 245 248 251 254 257 260 263 265 267 267 266 266 267 268 270 272 273 275 277 278 280 281 283 285
245 245 244 242 241 239 236 235 234 234 234 235 236 236 237 239 241 243 246 248 251 254 257 260 264 266 267 267 267 267 268 269 270 272 273 275 276 278 279 280 281 284
247 246 245 243 242 239 236 234 234 233 234 235 235 236 237 239 241 243 246 248 251 255 258 261 264 266 268 268 268 269 269 269 270 271 273 275 276 278 278 279 281 283
248 246 244 242 240 238 236 234 233 233 234 234 235 235 237 238 240 243 245 248 252 255 259 262 264 267 269 269 269 269 268 269 269 271 273 275 276 277 277 278 281 283
247 245 244 241 239 238 236 234 233 233 234 234 235 235 236 238 240 242 245 249 253 256 259 263 266 268 269 269 268 268 268 268 270 272 273 275 275 276 276 278 280 282
247 245 243 241 240 238 236 234 233 233 234 235 235 235 236 238 240 243 247 250 254 257 260 264 267 269 269 269 268 268 269 269 270 272 273 274 275 276 276 278 280 282
247 245 243 242 240 238 236 234 233 233 234 235 235 236 237 239 241 244 248 252 255 258 261 264 267 268 269 269 269 270 271 272 272 271 271 272 273 274 276 278 280 282
247 244 243 242 240 238 236 234 233 233 234 235 235 237 238 240 243 246 249 253 256 259 262 265 267 269 270 270 270 271 272 273 274 273 272 273 274 275 277 279 282 283
246 244 243 242 240 239 236 234 233 233 234 235 235 237 239 241 244 247 250 253 257 260 263 266 269 270 270 270 270 270 270 270 272 273 274 274 275 277 279 282 284 284
245 243 242 242 240 238 236 234 233 233 233 234 236 237 240 242 245 248 251 255 259 262 265 267 270 270 270 270 270 270 269 269 269 271 273 275 276 277 279 282 284 284
245 243 242 241 239 237 235 233 232 232 233 234 236 238 240 242 245 248 252 256 260 263 266 268 270 271 271 270 270 270 269 269 269 271 273 275 276 277 279 281 283 283
246 244 243 241 239 237 235 233 232 232 233 234 235 237 240 243 246 250 253 257 260 264 268 270 271 271 271 271 271 271 270 270 271 272 273 274 275 277 279 281 282 281
247 245 243 241 239 237 235 233 232 232 233 233 235 238 241 244 247 251 254 258 262 265 269 271 271 270 270 271 272 272 271 271 271 272 272 273 275 277 279 281 281 279
247 245 242 240 239 238 236 234 233 233 233 234 235 238 242 245 248 252 255 259 264 266 269 271 271 270 271 272 272 271 271 271 271 271 272 274 276 278 280 280 280 278
246 244 242 241 239 238 236 234 234 233 233 233 235 239 242 246 249 253 257 261 265 268 270 271 272 271 272 273 273 271 270 271 271 272 274 276 278 279 280 280 279 278
Height
1502 1503 1504 1506 1508 1510 1511 1513 1515 1516 1517 1519 1520 1521 1522 1523 1524 1524 1525 1526 1527 1527 1527 1527 1527 1526 1526 1526 1526 1526 1525 1526 1525 1525 1525 1524 1523 1523 1522 1521 1521 1520
1497 1499 1500 1502 1504 1506 1507 1509 1511 1512 1514 1515 1516 1517 1518 1519 1520 1521 1522 1523 1523 1524 1524 1524 1523 1523 1523 1523 1523 1523 1523 1523 1523 1523 1522 1522 1521 1521 1520 1519 1519 1518
1493 1494 1496 1498 1500 1502 1504 1506 1508 1509 1510 1511 1512 1514 1514 1515 1517 1518 1519 1519 1520 1520 1520 1520 1520 1520 1521 1521 1521 1521 1520 1520 1520 1520 1520 1519 1519 1518 1518 1517 1517 1516
1489 1491 1492 1494 1496 1498 1500 1502 1503 1505 1506 1507 1509 1510 1511 1511 1513 1514 1515 1516 1516 1517 1517 1517 1517 1517 1518 1518 1518 1518 1518 1518 1518 1518 1518 1517 1516 1516 1515 1515 1514 1513
1486 1487 1489 1491 1492 1494 1496 1497 1499 1501 1502 1504 1505 1506 1507 1508 1509 1510 1511 1512 1513 1513 1513 1514 1514 1514 1515 1515 1515 1515 1515 1516 1515 1515 1515 1514 1514 1513 1513 1512 1511 1511
1482 1483 1485 1487 1488 1490 1492 1493 1495 1496 1498 1499 1501 1502 1503 1504 1505 1506 1508 1508 1509 1510 1510 1511 1511 1511 1512 1512 1512 1512 1513 1513 1512 1512 1512 1511 1511 1510 1510 1509 1508 1508
1478 1479 1481 1482 1484 1486 1488 1489 1491 1492 1493 1495 1496 1498 1499 1501 1502 1503 1504 1505 1505 1506 1507 1507 1508 1508 1508 1509 1509 1509 1509 1509 1509 1509 1509 1508 1508 1507 1506 1506 1505 1505
1475 1476 1477 1478 1480 1481 1483 1485 1486 1488 1490 1491 1492 1494 1495 1496 1497 1498 1500 1500 1501 1502 1503 1504 1504 1505 1505 1505 1506 1506 1506 1506 1506 1505 1505 1505 1504 1504 1503 1503 1502 1502
1471 1472 1472 1474 1475 1477 1479 1481 1483 1485 1486 1487 1489 1490 1491 1492 1493 1494 1495 1496 1497 1498 1499 1500 1501 1501 1502 1502 1502 1502 1502 1502 1502 1502 1502 1501 1501 1500 1500 1499 1498 1498
1466 1467 1468 1469 1471 1472 1475 1477 1479 1481 1482 1483 1485 1486 1487 1488 1489 1490 1491 1493 1494 1495 1495 1496 1497 1497 1498 1498 1498 1498 1499 1499 1498 1498 1498 1498 1497 1497 1496 1496 1495 1495
1462 1463 1464 1465 1467 1469 1471 1474 1476 1477 1478 1479 1480 1481 1483 1484 1485 1487 1488 1489 1490 1491 1492 1492 1493 1494 1494 1494 1494 1495 1495 1495 1494 1494 1494 1494 1493 1493 1492 1492 1491 1491
1458 1459 1460 1461 1463 1465 1468 1470 1472 1473 1475 1476 1477 1478 1479 1481 1482 1483 1485 1486 1487 1487 1488 1489 1489 1490 1490 1490 1490 1491 1491 1491 1490 1490 1490 1490 1489 1489 1488 1488 1488 1487
1453 1455 1456 1458 1460 1462 1464 1466 1468 1470 1471 1472 1474 1475 1476 1477 1479 1481 1482 1483 1483 1484 1484 1485 1485 1486 1486 1486 1486 1486 1486 1486 1486 1486 1486 1486 1485 1485 1485 1484 1484 1483
1449 1451 1453 1455 1456 1458 1460 1461 1463 1465 1467 1469 1470 1471 1472 1474 1476 1477 1478 1479 1480 1480 1481 1482 1482 1482 1482 1482 1482 1482 1482 1482 1482 1482 1481 1481 1481 1481 1481 1480 1480 1480
1445 1447 1449 1451 1452 1453 1455 1457 1459 1461 1463 1465 1466 1467 1469 1470 1472 1473 1474 1475 1476 1477 1477 1478 1478 1478 1478 1478 1478 1477 1477 1477 1477 1477 1477 1477 1477 1477 1477 1476 1476 1476
1441 1443 1444 1446 1448 1449 1451 1453 1455 1457 1459 1460 1462 1464 1466 1467 1468 1469 1470 1471 1472 1473 1474 1474 1474 1474 1474 1474 1474 1473 1473 1473 1473 1473 1473 1473 1473 1473 1473 1472 1472 1472
1437 1438 1440 1442 1443 1445 1447 1449 1451 1453 1455 1457 1458 1460 1462 1463 1464 1465 1466 1467 1468 1469 1469 1470 1470 1470 1470 1470 1469 1469 1468 1468 1468 1469 1469 1468 1468 1468 1468 1469 1468 1468
1433 1434 1436 1438 1439 1441 1443 1445 1447 1449 1451 1453 1454 1456 1458 1459 1460 1461 1462 1463 1464 1465 1466 1466 1466 1466 1466 1465 1465 1464 1464 1463 1463 1464 1464 1464 1464 1464 1464 1465 1464 1463
1429 1430 1431 1433 1435 1437 1439 1441 1443 1444 1446 1448 1450 1452 1454 1455 1456 1457 1458 1459 1460 1461 1462 1462 1462 1462 1462 1461 1461 1460 1460 1458 1457 1458 1459 1459 1460 1459 1460 1460 1460 1459
1424 1425 1427 1429 1431 1433 1435 1436 1438 1440 1442 1445 1446 1448 1449 1451 1453 1453 1454 1455 1456 1456 1457 1458 1458 1458 1457 1457 1457 1456 1456 1454 1453 1453 1453 1454 1455 1455 1455 1455 1456 1455
1419 1421 1423 1425 1427 1429 1430 1432 1434 1436 1438 1440 1442 1444 1446 1447 1448 1449 1450 1451 1452 1452 1453 1453 1454 1454 1453 1453 1453 1452 1452 1450 1449 1448 1448 1448 1449 1451 1451 1451 1451 1450
1415 1417 1418 1420 1422 1424 1425 1427 1429 1431 1434 1436 1438 1440 1442 1443 1444 1445 1446 1447 1447 1448 1448 1449 1450 1450 1449 1449 1449 1448 1447 1445 1444 1444 1443 1443 1444 1445 1447 1447 1447 1445
1411 1413 1414 1416 1418 1419 1421 1423 1425 1427 1429 1432 1434 1435 1437 1438 1440 1441 1442 1443 1443 1443 1444 1445 1446 1446 1445 1445 1445 1444 1442 1441 1440 1439 1439 1439 1439 1441 1442 1442 1442 1441
1407 1409 1410 1412 1413 1414 1417 1419 1421 1423 1425 1428 1430 1431 1433 1435 1436 1437 1438 1438 1439 1439 1439 1440 1442 1442 1441 1440 1441 1440 1438 1436 1435 1434 1434 1434 1435 1436 1437 1437 1437 1437
1403 1404 1406 1407 1409 1411 1413 1415 1417 1420 1422 1424 1426 1427 1429 1430 1431 1432 1433 1434 1435 1435 1435 1436 1437 1438 1437 1436 1436 1436 1434 1431 1430 1429 1429 1430 1430 1431 1432 1432 1432 1431
1399 1400 1401 1403 1405 1407 1410 1412 1414 1416 1417 1419 1421 1423 1424 1426 1427 1428 1429 1430 1430 1430 1431 1431 1432 1433 1433 1432 1431 1431 1430 1427 1425 1424 1425 1425 1425 1425 1426 1427 1427 1426